Torna al catalogo

METEOR 2-5 DEB

AttivoPO
NORAD 35255·DEBRIS·🇷🇺 Russia

Lanciato Oct 31, 1979 da Plesetsk Cosmodrome

Loading…

Prossimi Passaggi (prossime 24 ore)

TLE

AggiornatoSource: Space-Track

Epoca: Sep 12, 2026, 01:00 UTC

1 35255U 79095W   26255.04211310  .00004698  00000-0  12783-2 0  9992
2 35255  81.2034  13.0453 0020049 107.4116 252.9270 14.47250483687052

Traccia METEOR 2-5 DEB in tempo reale con AllMySat

Download on the App Store